QPF
0.00 0.00 0.00 0.00 0.00 0.00 0.00 0.00 0.00 0.01 0.01 0.01 0.01 0.01 0.02 0.02 0.02 0.04 0.02 0.01 0.00 0.01 0.01 0.01 0.02 0.02 0.01 0.01 0.00 0.00 0.00 0.00 0.00 0.00 0.00 0.00 0.00 0.00 0.00 0.00 0.00 0.01 0.01 0.01 0.00 0.00 0.00 0.00 0.00
0.00 0.00 0.00 0.00 0.00 0.00 0.00 0.00 0.00 0.01 0.01 0.01 0.01 0.01 0.01 0.02 0.01 0.01 0.01 0.01 0.01 0.01 0.02 0.02 0.02 0.02 0.01 0.01 0.01 0.00 0.00 0.01 0.00 0.00 0.00 0.00 0.00 0.00 0.00 0.00 0.00 0.00 0.00 0.00 0.01 0.01 0.01 0.01 0.00
0.00 0.00 0.00 0.00 0.00 0.00 0.00 0.00 0.00 0.01 0.01 0.02 0.02 0.01 0.01 0.02 0.02 0.01 0.01 0.01 0.01 0.02 0.02 0.02 0.03 0.02 0.02 0.02 0.02 0.01 0.01 0.01 0.00 0.01 0.01 0.00 0.00 0.00 0.00 0.01 0.01 0.01 0.01 0.01 0.01 0.01 0.01 0.01 0.01
0.00 0.00 0.00 0.00 0.00 0.00 0.00 0.00 0.00 0.01 0.01 0.02 0.01 0.01 0.02 0.03 0.02 0.02 0.02 0.01 0.02 0.03 0.03 0.04 0.04 0.04 0.04 0.03 0.02 0.02 0.01 0.01 0.01 0.01 0.01 0.01 0.00 0.01 0.01 0.01 0.01 0.01 0.01 0.01 0.01 0.01 0.01 0.02 0.01
0.00 0.00 0.00 0.00 0.00 0.00 0.00 0.00 0.00 0.00 0.01 0.01 0.03 0.03 0.04 0.03 0.02 0.02 0.03 0.02 0.02 0.03 0.05 0.05 0.06 0.06 0.04 0.04 0.03 0.02 0.01 0.01 0.01 0.01 0.01 0.01 0.01 0.01 0.01 0.01 0.01 0.02 0.02 0.02 0.02 0.01 0.01 0.01 0.01
0.00 0.00 0.00 0.00 0.00 0.00 0.00 0.00 0.00 0.00 0.01 0.01 0.02 0.04 0.07 0.06 0.04 0.03 0.03 0.03 0.03 0.04 0.04 0.05 0.06 0.05 0.05 0.04 0.03 0.02 0.01 0.01 0.02 0.02 0.02 0.02 0.02 0.02 0.02 0.02 0.02 0.02 0.02 0.02 0.02 0.02 0.02 0.01 0.01
0.00 0.00 0.00 0.00 0.00 0.00 0.00 0.00 0.00 0.00 0.01 0.01 0.01 0.03 0.03 0.04 0.04 0.03 0.04 0.04 0.04 0.03 0.03 0.04 0.04 0.05 0.04 0.04 0.02 0.01 0.01 0.02 0.02 0.01 0.01 0.01 0.01 0.02 0.01 0.01 0.01 0.01 0.02 0.02 0.02 0.02 0.03 0.03 0.03
0.00 0.00 0.00 0.00 0.00 0.00 0.00 0.00 0.00 0.00 0.00 0.01 0.01 0.02 0.02 0.02 0.03 0.06 0.08 0.05 0.03 0.03 0.03 0.04 0.05 0.04 0.03 0.02 0.01 0.01 0.01 0.01 0.01 0.01 0.01 0.01 0.01 0.01 0.01 0.01 0.01 0.01 0.02 0.02 0.02 0.03 0.03 0.02 0.02
0.00 0.00 0.00 0.00 0.00 0.00 0.00 0.00 0.00 0.00 0.01 0.01 0.01 0.01 0.02 0.02 0.05 0.10 0.10 0.06 0.03 0.03 0.02 0.03 0.03 0.03 0.02 0.01 0.01 0.01 0.01 0.00 0.01 0.01 0.01 0.01 0.02 0.02 0.02 0.01 0.01 0.01 0.03 0.03 0.03 0.03 0.03 0.03 0.03
0.00 0.00 0.00 0.00 0.00 0.00 0.00 0.00 0.00 0.01 0.01 0.01 0.01 0.01 0.02 0.03 0.04 0.05 0.05 0.05 0.04 0.02 0.02 0.03 0.03 0.02 0.02 0.02 0.02 0.02 0.01 0.01 0.00 0.01 0.01 0.02 0.02 0.02 0.02 0.01 0.01 0.02 0.03 0.03 0.03 0.02 0.02 0.02 0.04
0.00 0.00 0.00 0.00 0.00 0.00 0.00 0.01 0.01 0.01 0.01 0.00 0.01 0.01 0.01 0.03 0.03 0.03 0.04 0.05 0.05 0.03 0.03 0.03 0.03 0.02 0.02 0.02 0.02 0.02 0.02 0.01 0.00 0.01 0.01 0.03 0.02 0.02 0.02 0.03 0.03 0.03 0.03 0.03 0.03 0.03 0.02 0.02 0.03
0.00 0.00 0.00 0.00 0.01 0.01 0.01 0.01 0.02 0.01 0.01 0.01 0.02 0.01 0.01 0.03 0.04 0.03 0.05 0.04 0.03 0.02 0.02 0.02 0.02 0.02 0.02 0.02 0.02 0.01 0.01 0.01 0.01 0.01 0.01 0.02 0.02 0.02 0.02 0.03 0.04 0.04 0.05 0.05 0.05 0.04 0.03 0.03 0.02
0.00 0.00 0.00 0.01 0.01 0.01 0.01 0.01 0.01 0.01 0.02 0.02 0.02 0.01 0.02 0.03 0.04 0.03 0.03 0.02 0.02 0.02 0.02 0.01 0.02 0.02 0.02 0.02 0.02 0.01 0.02 0.02 0.02 0.02 0.02 0.03 0.03 0.04 0.04 0.03 0.03 0.04 0.04 0.05 0.04 0.03 0.03 0.02 0.02
0.00 0.01 0.00 0.01 0.01 0.01 0.01 0.01 0.01 0.01 0.02 0.02 0.02 0.03 0.03 0.03 0.04 0.03 0.02 0.02 0.02 0.02 0.01 0.01 0.02 0.02 0.02 0.02 0.02 0.02 0.02 0.02 0.02 0.02 0.03 0.03 0.04 0.05 0.05 0.04 0.03 0.03 0.04 0.04 0.04 0.02 0.02 0.02 0.02
0.00 0.00 0.00 0.00 0.01 0.01 0.01 0.02 0.02 0.02 0.02 0.03 0.03 0.04 0.04 0.04 0.04 0.03 0.03 0.03 0.02 0.03 0.03 0.03 0.03 0.02 0.02 0.02 0.03 0.03 0.02 0.02 0.02 0.03 0.03 0.04 0.04 0.04 0.04 0.04 0.04 0.04 0.03 0.03 0.03 0.02 0.02 0.01 0.01
0.00 0.00 0.01 0.01 0.01 0.00 0.01 0.02 0.03 0.03 0.03 0.03 0.03 0.03 0.03 0.03 0.04 0.03 0.03 0.02 0.02 0.04 0.05 0.05 0.04 0.03 0.03 0.04 0.04 0.04 0.03 0.03 0.03 0.03 0.04 0.04 0.03 0.03 0.03 0.03 0.04 0.04 0.03 0.02 0.02 0.02 0.02 0.02 0.01
0.00 0.00 0.01 0.01 0.01 0.00 0.01 0.02 0.03 0.04 0.03 0.03 0.03 0.02 0.02 0.03 0.03 0.03 0.02 0.02 0.02 0.03 0.06 0.07 0.06 0.05 0.06 0.07 0.07 0.06 0.06 0.06 0.06 0.06 0.05 0.04 0.04 0.04 0.04 0.03 0.04 0.04 0.03 0.02 0.02 0.02 0.03 0.03 0.02
0.00 0.00 0.00 0.01 0.01 0.01 0.02 0.03 0.03 0.02 0.02 0.02 0.02 0.03 0.02 0.03 0.02 0.03 0.03 0.03 0.02 0.03 0.05 0.06 0.07 0.07 0.08 0.08 0.08 0.08 0.09 0.11 0.12 0.11 0.09 0.06 0.06 0.06 0.06 0.04 0.04 0.03 0.03 0.03 0.02 0.02 0.03 0.03 0.03
0.00 0.00 0.00 0.01 0.00 0.01 0.02 0.03 0.03 0.02 0.02 0.02 0.03 0.04 0.02 0.02 0.02 0.03 0.03 0.03 0.02 0.03 0.04 0.05 0.06 0.06 0.07 0.09 0.10 0.10 0.11 0.11 0.12 0.12 0.10 0.08 0.06 0.06 0.05 0.04 0.03 0.02 0.02 0.02 0.03 0.03 0.02 0.03 0.03
0.00 0.00 0.00 0.00 0.00 0.01 0.01 0.01 0.01 0.01 0.01 0.01 0.02 0.02 0.02 0.02 0.02 0.02 0.02 0.02 0.03 0.04 0.06 0.06 0.07 0.08 0.09 0.10 0.12 0.13 0.12 0.10 0.09 0.09 0.08 0.07 0.06 0.06 0.05 0.03 0.03 0.03 0.02 0.03 0.03 0.03 0.03 0.03 0.03
0.00 0.00 0.00 0.01 0.00 0.01 0.01 0.01 0.01 0.01 0.01 0.01 0.01 0.01 0.02 0.01 0.02 0.02 0.03 0.03 0.04 0.06 0.05 0.05 0.07 0.09 0.11 0.12 0.12 0.11 0.09 0.07 0.05 0.06 0.05 0.05 0.04 0.04 0.03 0.02 0.03 0.03 0.03 0.03 0.03 0.03 0.04 0.04 0.03
0.00 0.00 0.01 0.01 0.01 0.01 0.01 0.01 0.01 0.01 0.01 0.01 0.01 0.01 0.01 0.01 0.01 0.02 0.03 0.04 0.06 0.06 0.04 0.03 0.05 0.08 0.09 0.09 0.08 0.08 0.06 0.05 0.04 0.04 0.04 0.04 0.03 0.04 0.03 0.02 0.02 0.02 0.03 0.04 0.05 0.06 0.07 0.07 0.05
0.00 0.00 0.01 0.01 0.00 0.01 0.01 0.01 0.01 0.01 0.01 0.01 0.01 0.00 0.00 0.01 0.01 0.02 0.03 0.04 0.06 0.04 0.03 0.03 0.04 0.05 0.05 0.05 0.06 0.06 0.06 0.05 0.05 0.04 0.03 0.03 0.03 0.03 0.02 0.02 0.01 0.02 0.03 0.05 0.07 0.11 0.11 0.08 0.04
0.00 0.00 0.01 0.01 0.01 0.01 0.01 0.01 0.01 0.01 0.01 0.01 0.00 0.00 0.01 0.01 0.01 0.01 0.02 0.03 0.03 0.02 0.03 0.03 0.03 0.03 0.05 0.05 0.05 0.05 0.06 0.06 0.06 0.05 0.04 0.03 0.03 0.03 0.02 0.02 0.01 0.01 0.02 0.02 0.02 0.02 0.03 0.03 0.03
0.01 0.01 0.01 0.02 0.01 0.01 0.00 0.01 0.01 0.01 0.00 0.01 0.01 0.00 0.00 0.01 0.01 0.01 0.02 0.02 0.02 0.01 0.03 0.04 0.03 0.04 0.04 0.05 0.06 0.06 0.06 0.07 0.07 0.07 0.06 0.04 0.03 0.03 0.02 0.01 0.01 0.01 0.01 0.01 0.01 0.01 0.01 0.02 0.02
0.00 0.00 0.01 0.01 0.01 0.01 0.00 0.01 0.01 0.00 0.00 0.01 0.01 0.00 0.00 0.00 0.01 0.01 0.02 0.02 0.01 0.01 0.03 0.03 0.03 0.03 0.03 0.05 0.07 0.08 0.08 0.07 0.06 0.05 0.04 0.03 0.03 0.02 0.01 0.01 0.01 0.01 0.01 0.01 0.01 0.01 0.01 0.01 0.02
0.00 0.00 0.00 0.01 0.00 0.01 0.01 0.00 0.01 0.01 0.01 0.01 0.01 0.01 0.01 0.01 0.01 0.01 0.01 0.01 0.01 0.01 0.02 0.02 0.03 0.03 0.04 0.06 0.07 0.08 0.08 0.06 0.06 0.05 0.05 0.04 0.03 0.02 0.01 0.01 0.01 0.01 0.01 0.01 0.01 0.01 0.01 0.01 0.01
0.00 0.00 0.00 0.01 0.01 0.01 0.01 0.01 0.02 0.02 0.01 0.01 0.01 0.01 0.01 0.01 0.01 0.01 0.01 0.01 0.01 0.02 0.02 0.03 0.03 0.05 0.06 0.08 0.07 0.07 0.07 0.06 0.06 0.06 0.06 0.05 0.04 0.03 0.02 0.01 0.01 0.01 0.01 0.01 0.01 0.01 0.01 0.01 0.02
0.01 0.01 0.01 0.01 0.01 0.01 0.01 0.02 0.02 0.03 0.03 0.03 0.02 0.02 0.02 0.02 0.02 0.02 0.01 0.01 0.01 0.02 0.02 0.03 0.04 0.05 0.08 0.09 0.07 0.06 0.06 0.06 0.06 0.06 0.05 0.05 0.04 0.03 0.02 0.02 0.01 0.01 0.01 0.01 0.02 0.02 0.02 0.02 0.02
0.01 0.01 0.01 0.02 0.02 0.02 0.02 0.02 0.02 0.03 0.02 0.02 0.03 0.03 0.03 0.02 0.03 0.02 0.01 0.01 0.01 0.02 0.03 0.03 0.04 0.05 0.05 0.07 0.07 0.06 0.06 0.06 0.05 0.04 0.04 0.04 0.04 0.04 0.03 0.02 0.02 0.02 0.02 0.01 0.01 0.02 0.02 0.02 0.02
MSLP
1011.90 1012.22 1012.47 1012.57 1012.46 1012.11 1011.58 1010.92 1010.25 1009.67 1009.25 1009.02 1008.95 1009.00 1009.08 1009.12 1009.09 1008.97 1008.82 1008.70 1008.69 1008.85 1009.20 1009.71 1010.32 1010.95 1011.51 1011.95 1012.23 1012.39 1012.47 1012.55 1012.70 1012.95 1013.30 1013.73 1014.17 1014.58 1014.89 1015.09 1015.19 1015.23 1015.26 1015.32 1015.43 1015.60 1015.81 1016.00 1016.15
1011.77 1012.09 1012.32 1012.36 1012.17 1011.74 1011.12 1010.41 1009.72 1009.15 1008.78 1008.62 1008.65 1008.80 1008.97 1009.10 1009.13 1009.05 1008.91 1008.79 1008.77 1008.91 1009.25 1009.76 1010.39 1011.06 1011.66 1012.15 1012.48 1012.68 1012.80 1012.90 1013.05 1013.28 1013.61 1014.00 1014.40 1014.76 1015.03 1015.19 1015.27 1015.30 1015.32 1015.39 1015.52 1015.71 1015.94 1016.16 1016.32
1011.69 1011.98 1012.15 1012.11 1011.83 1011.33 1010.66 1009.93 1009.25 1008.73 1008.44 1008.39 1008.53 1008.78 1009.05 1009.25 1009.32 1009.26 1009.12 1008.98 1008.93 1009.05 1009.36 1009.87 1010.52 1011.21 1011.85 1012.39 1012.77 1013.02 1013.17 1013.29 1013.43 1013.65 1013.94 1014.29 1014.64 1014.95 1015.18 1015.31 1015.37 1015.39 1015.42 1015.50 1015.65 1015.85 1016.09 1016.31 1016.46
1011.69 1011.94 1012.03 1011.90 1011.53 1010.96 1010.25 1009.52 1008.87 1008.43 1008.24 1008.30 1008.55 1008.90 1009.24 1009.50 1009.59 1009.54 1009.39 1009.23 1009.16 1009.25 1009.55 1010.05 1010.69 1011.40 1012.07 1012.63 1013.05 1013.33 1013.51 1013.64 1013.78 1013.98 1014.24 1014.54 1014.85 1015.12 1015.32 1015.44 1015.49 1015.52 1015.56 1015.65 1015.80 1016.01 1016.24 1016.44 1016.56
1011.78 1011.96 1011.96 1011.74 1011.29 1010.65 1009.91 1009.19 1008.59 1008.22 1008.12 1008.27 1008.61 1009.04 1009.45 1009.74 1009.86 1009.81 1009.66 1009.50 1009.41 1009.49 1009.78 1010.27 1010.91 1011.61 1012.28 1012.85 1013.28 1013.57 1013.75 1013.88 1014.02 1014.20 1014.44 1014.71 1015.00 1015.24 1015.43 1015.54 1015.60 1015.63 1015.68 1015.78 1015.93 1016.13 1016.33 1016.50 1016.59
1011.90 1012.00 1011.92 1011.60 1011.07 1010.37 1009.61 1008.90 1008.35 1008.04 1008.01 1008.23 1008.62 1009.10 1009.55 1009.87 1010.01 1009.99 1009.86 1009.72 1009.65 1009.74 1010.03 1010.51 1011.13 1011.81 1012.46 1013.01 1013.42 1013.69 1013.87 1013.99 1014.12 1014.29 1014.52 1014.78 1015.04 1015.28 1015.46 1015.58 1015.64 1015.69 1015.75 1015.85 1016.00 1016.17 1016.34 1016.46 1016.50
1011.96 1011.99 1011.82 1011.42 1010.81 1010.08 1009.30 1008.60 1008.07 1007.80 1007.81 1008.06 1008.49 1008.99 1009.46 1009.81 1009.99 1010.01 1009.94 1009.85 1009.84 1009.96 1010.27 1010.75 1011.34 1011.98 1012.57 1013.07 1013.44 1013.68 1013.83 1013.95 1014.07 1014.24 1014.46 1014.72 1014.99 1015.22 1015.41 1015.52 1015.60 1015.65 1015.72 1015.81 1015.94 1016.09 1016.22 1016.30 1016.29
1011.89 1011.84 1011.59 1011.12 1010.47 1009.71 1008.93 1008.23 1007.73 1007.48 1007.50 1007.76 1008.19 1008.69 1009.17 1009.55 1009.78 1009.87 1009.88 1009.88 1009.95 1010.13 1010.47 1010.94 1011.51 1012.09 1012.62 1013.05 1013.35 1013.55 1013.67 1013.77 1013.90 1014.07 1014.30 1014.57 1014.84 1015.08 1015.26 1015.39 1015.46 1015.51 1015.57 1015.66 1015.77 1015.89 1015.98 1016.02 1015.97
1011.64 1011.53 1011.21 1010.69 1010.01 1009.24 1008.47 1007.80 1007.32 1007.08 1007.10 1007.35 1007.76 1008.25 1008.73 1009.14 1009.43 1009.60 1009.71 1009.82 1009.98 1010.24 1010.61 1011.08 1011.61 1012.13 1012.59 1012.94 1013.18 1013.33 1013.43 1013.52 1013.65 1013.84 1014.09 1014.37 1014.65 1014.89 1015.07 1015.18 1015.25 1015.29 1015.34 1015.40 1015.49 1015.59 1015.66 1015.67 1015.59
1011.23 1011.04 1010.67 1010.13 1009.45 1008.71 1007.98 1007.35 1006.90 1006.68 1006.69 1006.92 1007.30 1007.77 1008.25 1008.67 1009.02 1009.28 1009.49 1009.70 1009.95 1010.28 1010.69 1011.16 1011.66 1012.12 1012.50 1012.78 1012.97 1013.08 1013.16 1013.25 1013.40 1013.61 1013.88 1014.17 1014.46 1014.70 1014.87 1014.97 1015.01 1015.03 1015.06 1015.11 1015.17 1015.25 1015.30 1015.29 1015.21
1010.70 1010.45 1010.04 1009.50 1008.86 1008.18 1007.52 1006.96 1006.56 1006.36 1006.38 1006.59 1006.94 1007.38 1007.84 1008.28 1008.66 1008.98 1009.28 1009.57 1009.90 1010.28 1010.72 1011.18 1011.64 1012.05 1012.37 1012.60 1012.75 1012.84 1012.92 1013.03 1013.20 1013.43 1013.72 1014.03 1014.32 1014.56 1014.71 1014.79 1014.81 1014.81 1014.81 1014.83 1014.88 1014.94 1014.98 1014.96 1014.88
1010.11 1009.81 1009.40 1008.89 1008.32 1007.73 1007.17 1006.71 1006.38 1006.23 1006.25 1006.45 1006.77 1007.18 1007.61 1008.04 1008.43 1008.79 1009.13 1009.48 1009.85 1010.26 1010.70 1011.15 1011.58 1011.95 1012.24 1012.44 1012.57 1012.66 1012.76 1012.89 1013.09 1013.36 1013.67 1013.99 1014.28 1014.51 1014.65 1014.71 1014.71 1014.67 1014.65 1014.65 1014.68 1014.72 1014.75 1014.73 1014.64
1009.55 1009.22 1008.83 1008.38 1007.90 1007.42 1006.99 1006.64 1006.40 1006.31 1006.37 1006.56 1006.85 1007.22 1007.62 1008.02 1008.39 1008.75 1009.09 1009.44 1009.82 1010.22 1010.65 1011.08 1011.49 1011.84 1012.12 1012.32 1012.47 1012.58 1012.71 1012.88 1013.11 1013.40 1013.72 1014.05 1014.35 1014.56 1014.70 1014.74 1014.72 1014.67 1014.62 1014.60 1014.61 1014.63 1014.64 1014.62 1014.53
1009.08 1008.75 1008.38 1008.01 1007.63 1007.28 1006.98 1006.76 1006.62 1006.60 1006.69 1006.89 1007.16 1007.50 1007.85 1008.20 1008.53 1008.85 1009.15 1009.47 1009.81 1010.18 1010.58 1010.99 1011.38 1011.73 1012.03 1012.26 1012.45 1012.61 1012.78 1012.98 1013.24 1013.55 1013.88 1014.21 1014.50 1014.71 1014.84 1014.88 1014.86 1014.80 1014.73 1014.69 1014.68 1014.68 1014.67 1014.63 1014.53
1008.73 1008.41 1008.09 1007.79 1007.52 1007.30 1007.12 1007.00 1006.96 1007.00 1007.13 1007.33 1007.60 1007.90 1008.21 1008.51 1008.79 1009.04 1009.29 1009.54 1009.82 1010.14 1010.50 1010.88 1011.27 1011.65 1011.98 1012.27 1012.52 1012.74 1012.95 1013.19 1013.47 1013.78 1014.10 1014.42 1014.70 1014.92 1015.05 1015.10 1015.08 1015.02 1014.96 1014.90 1014.86 1014.83 1014.80 1014.73 1014.62
1008.50 1008.20 1007.93 1007.70 1007.53 1007.40 1007.32 1007.29 1007.31 1007.40 1007.55 1007.76 1008.02 1008.30 1008.58 1008.85 1009.07 1009.27 1009.45 1009.63 1009.84 1010.10 1010.41 1010.78 1011.17 1011.58 1011.97 1012.33 1012.65 1012.93 1013.20 1013.46 1013.74 1014.04 1014.34 1014.64 1014.91 1015.12 1015.26 1015.33 1015.34 1015.30 1015.24 1015.17 1015.11 1015.06 1014.99 1014.89 1014.75
1008.36 1008.09 1007.87 1007.70 1007.59 1007.53 1007.51 1007.52 1007.57 1007.67 1007.83 1008.04 1008.30 1008.57 1008.85 1009.10 1009.30 1009.46 1009.59 1009.72 1009.87 1010.07 1010.34 1010.69 1011.10 1011.54 1011.99 1012.42 1012.81 1013.16 1013.46 1013.74 1014.01 1014.28 1014.55 1014.82 1015.07 1015.28 1015.44 1015.54 1015.58 1015.57 1015.53 1015.47 1015.39 1015.30 1015.19 1015.06 1014.89
1008.28 1008.04 1007.86 1007.75 1007.68 1007.64 1007.63 1007.63 1007.66 1007.74 1007.88 1008.08 1008.34 1008.63 1008.93 1009.20 1009.42 1009.58 1009.70 1009.79 1009.90 1010.05 1010.29 1010.62 1011.04 1011.52 1012.02 1012.52 1012.98 1013.37 1013.71 1013.99 1014.24 1014.48 1014.70 1014.93 1015.16 1015.37 1015.54 1015.68 1015.76 1015.80 1015.78 1015.73 1015.65 1015.54 1015.40 1015.23 1015.03
1008.20 1008.02 1007.89 1007.81 1007.76 1007.71 1007.66 1007.61 1007.58 1007.60 1007.69 1007.87 1008.13 1008.45 1008.79 1009.13 1009.41 1009.62 1009.76 1009.86 1009.95 1010.08 1010.29 1010.60 1011.02 1011.51 1012.06 1012.60 1013.11 1013.55 1013.90 1014.19 1014.41 1014.60 1014.78 1014.97 1015.17 1015.37 1015.57 1015.74 1015.87 1015.95 1015.98 1015.95 1015.87 1015.75 1015.58 1015.39 1015.17
1008.12 1007.99 1007.92 1007.88 1007.83 1007.76 1007.64 1007.51 1007.37 1007.30 1007.31 1007.45 1007.71 1008.07 1008.49 1008.91 1009.29 1009.59 1009.80 1009.94 1010.05 1010.17 1010.35 1010.64 1011.04 1011.53 1012.09 1012.65 1013.19 1013.65 1014.03 1014.30 1014.51 1014.66 1014.80 1014.95 1015.12 1015.32 1015.53 1015.74 1015.91 1016.04 1016.11 1016.11 1016.04 1015.92 1015.75 1015.54 1015.32
1008.00 1007.95 1007.95 1007.95 1007.91 1007.80 1007.62 1007.37 1007.12 1006.92 1006.85 1006.93 1007.18 1007.58 1008.09 1008.63 1009.14 1009.56 1009.87 1010.08 1010.22 1010.34 1010.50 1010.75 1011.11 1011.57 1012.11 1012.68 1013.22 1013.70 1014.08 1014.35 1014.54 1014.67 1014.78 1014.90 1015.05 1015.24 1015.46 1015.69 1015.90 1016.07 1016.17 1016.21 1016.16 1016.05 1015.89 1015.68 1015.46
1007.86 1007.90 1007.98 1008.04 1008.03 1007.90 1007.64 1007.29 1006.92 1006.60 1006.42 1006.43 1006.67 1007.11 1007.70 1008.37 1009.02 1009.58 1010.01 1010.30 1010.49 1010.62 1010.75 1010.95 1011.25 1011.66 1012.15 1012.69 1013.22 1013.69 1014.08 1014.36 1014.55 1014.67 1014.76 1014.86 1015.00 1015.17 1015.39 1015.63 1015.86 1016.05 1016.19 1016.25 1016.23 1016.14 1015.99 1015.80 1015.59
1007.71 1007.84 1008.02 1008.16 1008.19 1008.05 1007.75 1007.32 1006.84 1006.40 1006.12 1006.07 1006.28 1006.75 1007.41 1008.19 1008.97 1009.67 1010.22 1010.61 1010.85 1010.99 1011.10 1011.24 1011.47 1011.80 1012.23 1012.71 1013.21 1013.68 1014.06 1014.35 1014.55 1014.67 1014.77 1014.86 1014.98 1015.14 1015.35 1015.58 1015.81 1016.01 1016.15 1016.23 1016.23 1016.16 1016.03 1015.86 1015.67
1007.57 1007.80 1008.07 1008.29 1008.37 1008.26 1007.94 1007.45 1006.89 1006.37 1006.01 1005.90 1006.08 1006.56 1007.28 1008.14 1009.03 1009.85 1010.51 1010.99 1011.28 1011.44 1011.52 1011.61 1011.76 1012.01 1012.36 1012.78 1013.24 1013.67 1014.06 1014.36 1014.57 1014.71 1014.81 1014.90 1015.01 1015.15 1015.34 1015.54 1015.75 1015.93 1016.07 1016.15 1016.15 1016.09 1015.98 1015.83 1015.66
1007.49 1007.78 1008.12 1008.41 1008.55 1008.47 1008.16 1007.66 1007.06 1006.49 1006.07 1005.91 1006.06 1006.54 1007.29 1008.21 1009.18 1010.10 1010.86 1011.41 1011.76 1011.93 1012.01 1012.05 1012.13 1012.30 1012.56 1012.91 1013.31 1013.72 1014.09 1014.40 1014.62 1014.78 1014.89 1014.99 1015.08 1015.20 1015.35 1015.52 1015.68 1015.83 1015.94 1015.99 1015.99 1015.93 1015.82 1015.68 1015.53
1007.48 1007.78 1008.16 1008.49 1008.68 1008.64 1008.36 1007.87 1007.27 1006.68 1006.24 1006.05 1006.19 1006.66 1007.42 1008.37 1009.40 1010.37 1011.20 1011.82 1012.22 1012.43 1012.50 1012.51 1012.54 1012.64 1012.83 1013.11 1013.45 1013.82 1014.17 1014.47 1014.70 1014.87 1015.00 1015.09 1015.17 1015.26 1015.37 1015.49 1015.60 1015.69 1015.75 1015.77 1015.74 1015.66 1015.55 1015.41 1015.25
1007.57 1007.82 1008.17 1008.49 1008.69 1008.67 1008.43 1007.98 1007.41 1006.85 1006.43 1006.25 1006.38 1006.85 1007.61 1008.57 1009.62 1010.63 1011.50 1012.17 1012.62 1012.86 1012.95 1012.97 1012.97 1013.02 1013.15 1013.36 1013.64 1013.95 1014.27 1014.55 1014.78 1014.96 1015.08 1015.17 1015.24 1015.31 1015.37 1015.44 1015.49 1015.52 1015.52 1015.48 1015.41 1015.30 1015.16 1015.01 1014.85
1007.76 1007.88 1008.13 1008.39 1008.54 1008.52 1008.31 1007.91 1007.41 1006.92 1006.55 1006.41 1006.57 1007.04 1007.79 1008.75 1009.79 1010.81 1011.71 1012.42 1012.91 1013.19 1013.32 1013.35 1013.35 1013.38 1013.47 1013.62 1013.85 1014.11 1014.38 1014.63 1014.84 1015.00 1015.12 1015.21 1015.27 1015.31 1015.34 1015.35 1015.35 1015.32 1015.25 1015.16 1015.03 1014.88 1014.71 1014.53 1014.34
1008.00 1007.94 1008.02 1008.14 1008.20 1008.15 1007.94 1007.60 1007.18 1006.79 1006.52 1006.46 1006.68 1007.18 1007.93 1008.87 1009.90 1010.91 1011.80 1012.53 1013.05 1013.38 1013.55 1013.62 1013.64 1013.67 1013.74 1013.86 1014.03 1014.24 1014.45 1014.66 1014.84 1014.98 1015.09 1015.17 1015.22 1015.24 1015.25 1015.23 1015.18 1015.09 1014.97 1014.82 1014.63 1014.42 1014.20 1013.98 1013.76
1008.25 1007.97 1007.83 1007.76 1007.68 1007.55 1007.33 1007.04 1006.72 1006.46 1006.32 1006.38 1006.68 1007.23 1008.00 1008.92 1009.92 1010.90 1011.78 1012.50 1013.05 1013.41 1013.63 1013.74 1013.80 1013.85 1013.92 1014.02 1014.15 1014.31 1014.47 1014.63 1014.77 1014.88 1014.97 1015.04 1015.08 1015.10 1015.10 1015.06 1014.97 1014.85 1014.68 1014.47 1014.22 1013.96 1013.68 1013.41 1013.15
Thickness
5786 5792 5796 5794 5787 5787 5787 5799 5805 5803 5807 5816 5817 5814 5810 5806 5801 5793 5811 5820 5816 5811 5801 5790 5785 5781 5777 5774 5772 5770 5767 5764 5762 5759 5756 5754 5751 5749 5747 5745 5744 5743 5741 5740 5739 5738 5736 5736 5735
5788 5791 5790 5788 5781 5777 5787 5801 5800 5803 5809 5815 5814 5811 5807 5805 5810 5808 5811 5814 5812 5806 5797 5789 5782 5778 5774 5771 5768 5766 5763 5761 5758 5755 5753 5750 5748 5745 5744 5742 5741 5739 5738 5737 5735 5734 5733 5732 5732
5787 5789 5785 5784 5780 5784 5790 5798 5800 5805 5810 5810 5807 5808 5805 5802 5806 5807 5810 5811 5807 5801 5794 5786 5779 5774 5771 5767 5765 5762 5759 5757 5754 5752 5749 5747 5744 5742 5740 5739 5737 5736 5735 5733 5732 5731 5730 5729 5728
5784 5781 5783 5778 5778 5791 5797 5799 5801 5800 5804 5807 5805 5799 5803 5806 5808 5809 5809 5807 5802 5797 5791 5783 5775 5771 5767 5764 5761 5758 5755 5753 5750 5748 5745 5743 5741 5739 5737 5736 5735 5733 5732 5731 5729 5728 5727 5726 5725
5781 5778 5771 5771 5780 5792 5798 5801 5801 5797 5798 5801 5802 5795 5794 5802 5807 5807 5805 5803 5798 5793 5788 5780 5772 5768 5764 5760 5757 5754 5752 5750 5747 5744 5742 5739 5738 5736 5734 5733 5731 5730 5728 5727 5726 5725 5724 5723 5722
5772 5774 5765 5767 5777 5788 5795 5800 5799 5797 5798 5800 5799 5793 5793 5799 5801 5801 5801 5798 5795 5790 5785 5776 5767 5764 5760 5757 5754 5751 5748 5746 5743 5741 5738 5736 5734 5732 5730 5729 5728 5726 5725 5724 5722 5721 5721 5720 5719
5767 5766 5766 5773 5776 5780 5789 5799 5796 5794 5794 5798 5802 5791 5792 5794 5797 5798 5797 5794 5791 5787 5782 5774 5767 5761 5756 5753 5750 5747 5745 5742 5739 5737 5735 5732 5730 5728 5727 5725 5724 5722 5721 5720 5719 5718 5717 5717 5716
5772 5769 5765 5771 5771 5776 5790 5795 5798 5795 5794 5804 5803 5790 5788 5791 5794 5794 5790 5788 5786 5782 5779 5773 5768 5762 5757 5752 5747 5744 5741 5738 5736 5733 5731 5729 5727 5725 5724 5722 5720 5719 5717 5716 5715 5714 5713 5713 5712
5768 5759 5760 5769 5771 5777 5788 5786 5793 5800 5796 5795 5799 5798 5797 5794 5790 5786 5781 5779 5777 5776 5774 5771 5767 5762 5757 5753 5746 5741 5738 5735 5732 5731 5728 5726 5727 5726 5723 5721 5717 5715 5714 5712 5711 5710 5709 5709 5710
5761 5756 5764 5775 5780 5780 5783 5784 5788 5789 5786 5786 5789 5791 5791 5788 5784 5780 5776 5772 5770 5768 5768 5767 5764 5759 5755 5752 5745 5741 5738 5735 5732 5732 5728 5726 5726 5724 5722 5717 5714 5712 5711 5709 5708 5707 5707 5707 5710
5760 5759 5766 5773 5779 5780 5778 5781 5788 5783 5779 5785 5784 5784 5783 5781 5779 5777 5774 5772 5769 5766 5763 5762 5759 5756 5752 5748 5744 5740 5737 5733 5731 5729 5726 5723 5722 5720 5718 5716 5713 5711 5709 5709 5707 5707 5707 5707 5705
5756 5759 5764 5769 5775 5775 5775 5778 5779 5780 5784 5791 5790 5788 5782 5776 5774 5774 5771 5770 5767 5763 5760 5758 5755 5751 5747 5744 5741 5738 5735 5732 5730 5725 5722 5720 5718 5716 5715 5712 5711 5709 5708 5705 5704 5703 5702 5700 5700
5752 5755 5761 5767 5770 5772 5772 5771 5772 5775 5785 5788 5786 5783 5779 5776 5773 5772 5771 5767 5764 5759 5756 5754 5751 5747 5743 5739 5736 5735 5731 5729 5725 5722 5718 5715 5714 5712 5711 5708 5705 5706 5703 5701 5698 5698 5696 5695 5695
5754 5755 5758 5763 5765 5768 5765 5768 5768 5771 5780 5779 5777 5775 5775 5772 5770 5767 5764 5761 5758 5756 5753 5751 5747 5743 5739 5735 5731 5729 5727 5723 5721 5718 5714 5711 5709 5707 5705 5704 5701 5700 5698 5695 5693 5692 5691 5690 5689
5754 5749 5753 5759 5763 5765 5763 5757 5762 5770 5773 5769 5769 5769 5768 5767 5766 5762 5760 5757 5755 5752 5750 5746 5744 5740 5735 5732 5729 5726 5723 5720 5717 5713 5709 5706 5704 5702 5700 5699 5697 5694 5691 5689 5687 5686 5686 5685 5684
5750 5747 5744 5754 5759 5762 5755 5747 5760 5767 5764 5761 5762 5763 5761 5761 5761 5759 5757 5754 5752 5749 5745 5742 5741 5736 5731 5727 5724 5721 5719 5715 5712 5708 5705 5702 5699 5696 5695 5693 5691 5687 5686 5684 5683 5682 5681 5679 5678
5745 5741 5742 5748 5758 5759 5754 5748 5757 5762 5759 5757 5758 5758 5757 5755 5754 5754 5753 5751 5748 5745 5741 5738 5735 5731 5728 5723 5719 5716 5712 5709 5707 5703 5700 5697 5694 5691 5689 5687 5684 5681 5680 5679 5677 5676 5674 5672 5670
5737 5741 5740 5742 5752 5751 5747 5746 5752 5757 5757 5755 5755 5754 5752 5750 5749 5749 5748 5747 5744 5741 5737 5733 5729 5726 5723 5719 5714 5711 5707 5704 5701 5698 5695 5692 5689 5686 5684 5682 5678 5676 5675 5672 5670 5667 5666 5664 5663
5741 5738 5737 5742 5750 5746 5741 5742 5748 5752 5751 5750 5750 5749 5748 5746 5747 5746 5744 5742 5740 5736 5731 5728 5724 5720 5717 5714 5710 5706 5703 5700 5697 5694 5689 5687 5683 5680 5678 5677 5672 5670 5669 5666 5664 5662 5660 5659 5657
5738 5734 5735 5739 5744 5740 5738 5740 5748 5749 5748 5748 5746 5745 5744 5742 5741 5738 5737 5736 5734 5731 5727 5723 5719 5716 5713 5710 5707 5703 5699 5695 5693 5689 5684 5681 5678 5675 5673 5669 5668 5665 5662 5660 5657 5654 5653 5653 5651
5734 5734 5733 5731 5736 5740 5735 5734 5741 5745 5746 5744 5743 5743 5742 5739 5735 5733 5732 5730 5729 5726 5723 5721 5716 5713 5709 5706 5703 5698 5693 5690 5687 5683 5680 5677 5673 5670 5667 5664 5662 5659 5658 5655 5652 5649 5646 5645 5644
5727 5739 5734 5730 5726 5730 5732 5720 5737 5742 5738 5737 5737 5737 5736 5736 5733 5731 5728 5725 5723 5721 5719 5716 5712 5708 5704 5701 5698 5694 5689 5686 5683 5679 5676 5672 5668 5665 5662 5659 5656 5654 5653 5649 5648 5646 5641 5638 5638
5732 5738 5734 5731 5728 5726 5732 5724 5734 5740 5732 5734 5734 5733 5732 5732 5730 5727 5725 5722 5720 5717 5714 5711 5706 5703 5700 5697 5694 5689 5685 5682 5678 5673 5670 5667 5664 5660 5657 5654 5651 5649 5647 5644 5641 5638 5635 5634 5632
5735 5731 5729 5729 5729 5715 5727 5722 5726 5735 5732 5733 5733 5730 5729 5728 5726 5724 5721 5718 5714 5712 5709 5705 5700 5696 5693 5691 5687 5683 5680 5675 5671 5667 5664 5662 5660 5656 5653 5649 5646 5644 5642 5639 5636 5633 5631 5628 5625
5729 5720 5711 5710 5714 5719 5731 5722 5724 5733 5734 5732 5729 5726 5725 5723 5720 5718 5715 5712 5708 5704 5701 5697 5694 5690 5687 5684 5681 5677 5674 5670 5666 5663 5660 5658 5655 5652 5647 5645 5642 5640 5636 5634 5632 5629 5626 5624 5620
5724 5721 5706 5697 5704 5719 5725 5718 5726 5731 5731 5729 5726 5723 5720 5717 5716 5713 5711 5707 5703 5700 5695 5691 5688 5685 5682 5678 5675 5671 5668 5666 5664 5660 5658 5655 5652 5648 5643 5640 5638 5635 5632 5630 5628 5626 5623 5620 5617
5720 5723 5727 5714 5712 5708 5716 5723 5725 5725 5721 5719 5718 5716 5713 5711 5710 5708 5706 5702 5699 5695 5690 5686 5683 5679 5676 5673 5669 5666 5663 5662 5659 5656 5653 5652 5647 5644 5640 5636 5633 5631 5629 5626 5624 5622 5618 5616 5614
5724 5722 5715 5709 5693 5693 5707 5713 5713 5712 5710 5710 5708 5708 5707 5705 5704 5702 5700 5697 5694 5690 5685 5681 5678 5674 5671 5668 5665 5662 5659 5656 5654 5651 5648 5645 5643 5639 5635 5633 5630 5628 5626 5623 5620 5618 5616 5612 5610
5712 5711 5709 5709 5705 5691 5689 5700 5715 5710 5707 5703 5702 5703 5701 5699 5697 5695 5693 5691 5687 5684 5679 5675 5671 5668 5665 5663 5660 5657 5655 5652 5650 5647 5645 5642 5639 5635 5632 5630 5627 5625 5623 5620 5616 5614 5612 5608 5606
5712 5708 5706 5692 5691 5696 5691 5695 5712 5709 5706 5701 5697 5696 5696 5694 5692 5690 5687 5684 5680 5676 5672 5669 5665 5662 5660 5658 5655 5652 5649 5647 5645 5643 5641 5638 5635 5632 5629 5626 5624 5622 5619 5616 5613 5610 5608 5605 5603